This demonstration page uses our WeatherBlox Daily Observations layout. Learn more.

Left ArrowRight Arrow

Hourly Observations for May 12, 2017

Temp ( °F °C ) Dew Point ( °F °C ) Humidity (%) Winds ( mph kmh ) Pressure ( in mb ) Visibility ( mi km ) Precip ( " mm )
12:40 am 00:40 Cloudy with Light Rain 62 16.7 61 16.1 96 96 E 18 30 29.80 1009 10 16 0.05 1.27
12:52 am 00:52 Cloudy with Light Rain 62 16.7 60 15.6 93 93 ENE 14 22 29.81 1009 10 16 0.05 1.27
1:02 am 01:02 Cloudy with Light Rain 62 16.7 61 16.1 96 96 ENE 7 11 29.83 1010 10 16 0.00 0.03
1:52 am 01:52 Cloudy 62 16.7 61 16.1 96 96 NNE 12 19 29.83 1010 9 14 0.00 0.03
2:27 am 02:27 Cloudy 62 16.7 61 16.1 96 96 NNE 13 20 29.83 1010 7 11 0.00 0.00
2:52 am 02:52 Cloudy with Rain 62 16.7 61 16.1 96 96 NE 13 20 29.82 1010 3 5 0.03 0.76
3:21 am 03:21 Cloudy with Rain 61 16.1 60 15.6 97 97 NNE 14 22 29.83 1010 3 5 0.03 0.76
3:28 am 03:28 Cloudy with Rain 61 16.1 60 15.6 97 97 NNE 15 24 29.80 1009 3 4 0.04 1.02
3:43 am 03:43 Cloudy with Heavy Rain 61 16.1 60 15.6 97 97 NNE 15 24 29.80 1009 3 4 0.09 2.29
3:52 am 03:52 Cloudy with Rain 61 16.1 60 15.6 97 97 NNE 16 26 29.81 1010 3 5 0.11 2.79
4:07 am 04:07 Cloudy with Light Rain 61 16.1 59 15 93 93 NE 18 30 29.80 1009 4 6 0.03 0.76
4:52 am 04:52 Cloudy with Light Rain 61 16.1 59 15 93 93 NE 15 24 29.82 1010 7 11 0.04 1.02
5:36 am 05:36 Cloudy with Light Rain 60 15.6 58 14.4 93 93 NNE 13 20 29.83 1010 6 10 0.02 0.51
5:52 am 05:52 Cloudy with Light Rain 60 15.6 58 14.4 93 93 NNE 13 20 29.83 1010 7 11 0.02 0.51
6:52 am 06:52 Cloudy with Light Rain 60 15.6 58 14.4 93 93 NNE 12 19 29.84 1011 6 10 0.00 0.03
7:19 am 07:19 Cloudy with Mist and Fog 60 15.6 58 14.4 93 93 NNE 10 17 29.85 1011 5 8 0.00 0.03
7:52 am 07:52 Cloudy with Mist and Fog 60 15.6 58 14.4 93 93 NNE 16 26 29.85 1011 5 8 0.00 0.03
8:11 am 08:11 Cloudy with Light Rain 60 15.6 57 13.9 90 90 NNE 16 26 29.85 1011 6 10 0.00 0.03
8:21 am 08:21 Cloudy 60 15.6 57 13.9 90 90 NNE 15 24 29.85 1011 8 13 0.00 0.03
8:38 am 08:38 Cloudy 60 15.6 57 13.9 90 90 NNE 18 30 29.85 1011 10 16 0.00 0.03
8:52 am 08:52 Cloudy 61 16.1 55 12.8 81 81 NNE 18 30 29.86 1011 10 16 0.00 0.03
9:33 am 09:33 Cloudy 61 16.1 56 13.3 84 84 NE 14 22 29.85 1011 10 16 0.00 0.00
9:50 am 09:50 Cloudy 61 16 55 13 83 83 NNE 18 30 29.85 1011 9 14 0.00 0.00
9:52 am 09:52 Cloudy 60 15.6 56 13.3 86 86 NNE 17 28 29.87 1012 8 13 0.00 0.00
10:22 am 10:22 Cloudy 62 16.7 55 12.8 78 78 NE 16 26 29.88 1012 10 16 0.00 0.00
10:52 am 10:52 Mostly Cloudy 63 17.2 54 12.2 73 73 NNE 21 33 29.89 1012 10 16 0.00 0.00
11:50 am 11:50 Mostly Cloudy 64 18 54 12 68 68 NNE 21 33 29.88 1012 10 16 0.00 0.00
11:52 am 11:52 Mostly Cloudy 66 18.9 54 12.2 65 65 NE 18 30 29.90 1012 10 16 0.00 0.00
12:52 pm 12:52 Sunny 69 20.6 53 11.7 57 57 NE 20 31 29.88 1012 10 16 0.00 0.00
1:52 pm 13:52 Partly Cloudy 70 21.1 53 11.7 55 55 NE 17 28 29.88 1012 10 16 0.00 0.00
2:52 pm 14:52 Partly Cloudy 72 22.2 53 11.7 52 52 NE 15 24 29.88 1012 10 16 0.00 0.00
3:52 pm 15:52 Partly Cloudy 73 22.8 52 11.1 48 48 NE 14 22 29.87 1012 10 16 0.00 0.00
4:52 pm 16:52 Mostly Sunny 72 22.2 51 10.6 48 48 NE 18 30 29.87 1012 10 16 0.00 0.00
5:52 pm 17:52 Partly Cloudy 72 22.2 52 11.1 50 50 N 14 22 29.87 1012 10 16 0.00 0.00
6:52 pm 18:52 Mostly Cloudy 71 21.7 51 10.6 49 49 N 13 20 29.88 1012 10 16 0.00 0.00
7:52 pm 19:52 Sunny 68 20 52 11.1 57 57 NNE 6 9 29.90 1012 10 16 0.00 0.00
8:52 pm 20:52 Clear 64 17.8 52 11.1 65 65 NNE 3 6 29.90 1013 10 16 0.00 0.00
9:52 pm 21:52 Clear 63 17.2 52 11.1 68 68 NNE 5 7 29.93 1013 10 16 0.00 0.00
10:52 pm 22:52 Clear 59 15 53 11.7 81 81 Calm 29.93 1014 10 16 0.00 0.00
11:52 pm 23:52 Clear 57 13.9 52 11.1 83 83 Calm 29.93 1014 10 16 0.00 0.00

Powered by AerisWeather